Weather History for KLGU - August, 2013

Change the Weather History Date:

Friday, August 23, 2013

  Actual Average Record
Temperature  
Mean Temperature 73 °F -  
Max Temperature 84 °F 85 °F 95 °F (1967)
Min Temperature 62 °F 50 °F 34 °F (1960)
Cooling Degree Days 8    
Growing Degree Days 23 (Base 50)    
Moisture  
Dew Point 51 °F    
Average Humidity 50    
Maximum Humidity 80    
Minimum Humidity 33    
Precipitation  
Precipitation 0.00 in - - ()
Sea Level Pressure  
Sea Level Pressure 29.85 in    
Wind  
Wind Speed 6 mph (South)    
Max Wind Speed 21 mph    
Max Gust Speed 32 mph    
Visibility 10 miles    
Events      
Averages and records for this station are not official NWS values.
T = Trace of Precipitation, MM = Missing Value Source: NWS Daily Summary

Daily Weather History Graph

Daily Weather History Graph

Search for Another Location

Airport or City:

Trip Planner

Search our weather history database for the weather conditions in past years. The results will help you decide how hot, cold, wet, or windy it might be!

Date:

Astronomy

Aug. 23, 2013 Rise Set
Actual Time 6:44 AM MDT 8:14 PM MDT
Civil Twilight 6:15 AM MDT 8:43 PM MDT
Nautical Twilight 5:39 AM MDT 9:19 PM MDT
Astronomical Twilight 5:02 AM MDT 9:56 PM MDT
Moon 9:31 PM MDT (8/23) 9:47 AM MDT (8/23)
Length of Visible Light 14h 28m
Length of Day
13h 30m
Waning Gibbous, 91% of the Moon is Illuminated
Aug 23
Waning Gibbous
Aug 28
Last Quarter
Sep 5
New
Sep 12
First Quarter
Sep 19
Full

Hourly Weather History & Observations

Time (MDT) Temp. Heat Index Dew Point Humidity Pressure Visibility Wind Dir Wind Speed Gust Speed Precip Events Conditions
12:51 AM 73.9 °F - 48.9 °F 41% 29.86 in 10.0 mi Calm Calm - N/A   Clear
1:51 AM 73.0 °F - 48.0 °F 41% 29.86 in 10.0 mi Calm Calm - N/A   Clear
2:51 AM 69.1 °F - 48.9 °F 49% 29.87 in 10.0 mi ENE 3.5 mph - N/A   Clear
3:51 AM 71.1 °F - 46.9 °F 42% 29.85 in 10.0 mi SSW 8.1 mph - N/A   Clear
4:51 AM 71.1 °F - 46.9 °F 42% 29.84 in 10.0 mi South 10.4 mph - N/A   Clear
5:51 AM 68.0 °F - 48.0 °F 49% 29.84 in 10.0 mi Calm Calm - N/A   Clear
6:51 AM 64.9 °F - 48.0 °F 54% 29.85 in 10.0 mi ENE 3.5 mph - N/A   Clear
7:51 AM 64.9 °F - 48.9 °F 56% 29.86 in 10.0 mi Calm Calm - N/A   Clear
8:51 AM 69.1 °F - 50.0 °F 51% 29.87 in 10.0 mi NNE 6.9 mph - N/A   Partly Cloudy
9:51 AM 75.0 °F - 50.0 °F 41% 29.85 in 10.0 mi Variable 3.5 mph - N/A   Clear
10:51 AM 78.1 °F - 48.0 °F 35% 29.85 in 10.0 mi Variable 3.5 mph - N/A   Clear
11:51 AM 82.0 °F - 50.0 °F 33% 29.85 in 10.0 mi SW 8.1 mph - N/A   Mostly Cloudy
12:51 PM 84.0 °F 82.5 °F 53.1 °F 34% 29.84 in 10.0 mi SSW 20.7 mph 27.6 mph N/A   Clear
1:51 PM 81.0 °F - 52.0 °F 36% 29.84 in 10.0 mi SSW 17.3 mph 32.2 mph N/A   Clear
2:51 PM 80.1 °F - 51.1 °F 36% 29.85 in 10.0 mi SSW 17.3 mph 27.6 mph N/A   Clear
3:51 PM 79.0 °F - 52.0 °F 39% 29.83 in 10.0 mi SSW 16.1 mph - N/A   Clear
4:51 PM 80.1 °F - 52.0 °F 38% 29.80 in 10.0 mi SW 18.4 mph - N/A   Scattered Clouds
5:51 PM 77.0 °F - 51.1 °F 40% 29.81 in 10.0 mi SSW 10.4 mph - N/A   Overcast
6:51 PM 73.9 °F - 55.0 °F 52% 29.83 in 10.0 mi West 5.8 mph - N/A   Overcast
7:51 PM 69.1 °F - 57.9 °F 68% 29.85 in 10.0 mi ENE 6.9 mph - 0.00 in   Overcast
8:51 PM 68.0 °F - 60.1 °F 76% 29.85 in 10.0 mi NNE 6.9 mph - N/A   Overcast
9:51 PM 64.0 °F - 57.9 °F 80% 29.88 in 10.0 mi North 9.2 mph - N/A   Partly Cloudy
10:51 PM 62.1 °F - 55.0 °F 78% 29.89 in 10.0 mi NNW 6.9 mph - N/A   Clear
11:51 PM 62.1 °F - 55.9 °F 80% 29.89 in 10.0 mi East 3.5 mph - 0.00 in   Mostly Cloudy